Akron, CO

12:12 AM MDT on April 26, 2018 (GMT -0600)
Akron-Washington County

Weather History for KAKO - July, 2013

Change the Weather History Date:

Tuesday, July 9, 2013

  Actual Average Record
Temperature  
Mean Temperature 82 °F 74 °F  
Max Temperature 98 °F 88 °F 103 °F (1940)
Min Temperature 65 °F 60 °F 46 °F (1952)
Degree Days  
Heating Degree Days 0    
Month to date heating degree days 0  
Cooling Degree Days 17    
Month to date cooling degree days 93  
Growing Degree Days 30 (Base 50)    
Moisture  
Dew Point 49 °F    
Average Humidity 50    
Maximum Humidity 87    
Minimum Humidity 13    
Precipitation  
Precipitation 0.00 in 0.08 in 1.51 in (1963)
Month to date precipitation 0.34 0.66  
Year to date precipitation 5.43 9.30  
Sea Level Pressure  
Sea Level Pressure 29.93 in    
Wind  
Wind Speed 9 mph (NW)    
Max Wind Speed 28 mph    
Max Gust Speed 35 mph    
Visibility 10 miles    
Events      
T = Trace of Precipitation, MM = Missing Value Source: NWS Daily Summary

Daily Weather History Graph

Daily Weather History Graph

Search for Another Location

Airport or City:

Astronomy

Jul. 09, 2013 Rise Set
Actual Time 5:32 AM MDT 8:24 PM MDT
Civil Twilight 4:59 AM MDT 8:56 PM MDT
Nautical Twilight 4:18 AM MDT 9:37 PM MDT
Astronomical Twilight 3:31 AM MDT 10:23 PM MDT
Moon 6:58 AM MDT (7/9) 9:02 PM MDT (7/9)
Length of Visible Light 15h 56m
Length of Day
14h 51m
New Moon, 2% of the Moon is Illuminated
Jul 9
New Moon
Jul 15
First Quarter
Jul 22
Full
Jul 29
Last Quarter
Aug 6
New

Hourly Weather History & Observations

Time (MDT) Temp. Heat Index Dew Point Humidity Pressure Visibility Wind Dir Wind Speed Gust Speed Precip Events Conditions
12:53 AM 72.0 °F - 61.0 °F 68% 29.90 in 10.0 mi Variable 5.8 mph - N/A   Clear
1:53 AM 71.1 °F - 60.1 °F 68% 29.89 in 10.0 mi Calm Calm - N/A   Clear
2:53 AM 66.9 °F - 59.0 °F 76% 29.89 in 10.0 mi WSW 3.5 mph - N/A   Clear
3:53 AM 68.0 °F - 57.0 °F 68% 29.88 in 10.0 mi WSW 4.6 mph - N/A   Clear
4:53 AM 64.9 °F - 61.0 °F 87% 29.90 in 8.0 mi WNW 8.1 mph - N/A   Unknown
5:53 AM 66.0 °F - 57.9 °F 75% 29.91 in 10.0 mi West 13.8 mph - N/A   Clear
6:53 AM 68.0 °F - 55.0 °F 63% 29.93 in 10.0 mi West 16.1 mph - N/A   Clear
7:53 AM 73.0 °F - 55.9 °F 55% 29.95 in 10.0 mi West 12.7 mph - N/A   Clear
8:53 AM 80.1 °F 80.1 °F 55.0 °F 42% 29.96 in 10.0 mi West 19.6 mph 24.2 mph N/A   Clear
9:53 AM 86.0 °F - 46.9 °F 26% 29.96 in 10.0 mi WNW 13.8 mph 26.5 mph N/A   Clear
10:53 AM 91.9 °F - 45.0 °F 20% 29.96 in 10.0 mi NW 12.7 mph 23.0 mph N/A   Clear
11:53 AM 95.0 °F - 41.0 °F 15% 29.94 in 10.0 mi NW 20.7 mph 28.8 mph N/A   Clear
12:53 PM 95.0 °F - 39.0 °F 14% 29.94 in 10.0 mi NW 15.0 mph 29.9 mph N/A   Clear
1:53 PM 97.0 °F - 39.9 °F 14% 29.93 in 10.0 mi NNW 16.1 mph 27.6 mph N/A   Clear
2:53 PM 95.0 °F - 37.9 °F 14% 29.93 in 10.0 mi Calm Calm - N/A   Clear
3:53 PM 97.0 °F - 37.9 °F 13% 29.91 in 10.0 mi NNW 10.4 mph - N/A   Clear
4:53 PM 96.1 °F - 37.9 °F 13% 29.91 in 10.0 mi NNW 11.5 mph - N/A   Clear
5:53 PM 95.0 °F - 37.0 °F 13% 29.90 in 10.0 mi East 5.8 mph - N/A   Clear
6:53 PM 91.0 °F - 39.0 °F 16% 29.91 in 10.0 mi ENE 8.1 mph - N/A   Clear
7:53 PM 87.1 °F - 42.1 °F 21% 29.92 in 10.0 mi ESE 8.1 mph - N/A   Clear
8:53 PM 82.0 °F - 48.9 °F 31% 29.97 in 10.0 mi NNE 9.2 mph - N/A   Mostly Cloudy
9:53 PM 75.0 °F - 51.1 °F 43% 30.00 in 10.0 mi NE 27.6 mph 33.4 mph N/A   Clear
10:53 PM 69.1 °F - 57.0 °F 65% 30.01 in 10.0 mi ENE 17.3 mph 26.5 mph N/A   Clear
11:53 PM 66.0 °F - 57.0 °F 73% 30.03 in 10.0 mi East 15.0 mph 27.6 mph N/A   Clear